Location: San Antonio
(29.4240°N, 98.4930°W)
Time: 19:34:53
(UTC-05:00)

Explorer 11/Cluster Stage 4 - Pass Details

Date: 23 July 2024
Orbit: 463 x 1188 km, 28.8° (Epoch: 16 July)

Event Time Altitude Azimuth Distance (km) Brightness Sun altitude
Rises 12:46:51 0° 275° (W) 2,800 9.3 74.5°
Reaches altitude 10° 12:49:27 10° 265° (W) 1,799 8.5 75.0°
Maximum altitude 12:53:07 33° 201° (SSW) 848 7.4 75.6°
Drops below altitude 10° 12:56:26 10° 135° (SE) 1,618 8.6 76.2°
Sets 12:58:39 0° 125° (SE) 2,469 9.3 76.5°
